Volver al catálogo

PE2_FLT2

TYVAK-0262

ActivoCienciaSSO
NORAD 59104·PAYLOAD·🇺🇸 United States

Lanzado Mar 4, 2024 desde Vandenberg Space Force Base

Loading…

Próximos Pases (próximas 24 horas)

TLE

ActualizadoSource: Space-Track

Época: Sep 14, 2026, 04:43 UTC

1 59104U 24043G   26257.19655442  .00001917  00000-0  16920-3 0  9999
2 59104  97.8520  28.2077 0007684 102.0231 258.1852 14.97576935137976

Sigue PE2_FLT2 en tiempo real con AllMySat

Download on the App Store